Location: Newark
(40.9833°N, 0.0333°W)
Time: 02:29:51
(UTC+00:00)

Altair - Pass Details

Date: 28 October 2020
Orbit: 1502 x 1682 km, 47.2° (Epoch: 02 December)

Event Time Altitude Azimuth Distance (km) Brightness Sun altitude
Rises 12:06:29 0° 297° (WNW) 4,799 9.9 35.4°
Reaches altitude 10° 12:09:43 10° 291° (WNW) 3,836 9.6 35.3°
Maximum altitude 12:18:45 43° 224° (SW) 2,179 9.7 35.0°
Drops below altitude 10° 12:28:01 10° 157° (SSE) 3,924 10.5 34.7°
Sets 12:31:24 0° 151° (SSE) 4,917 10.7 34.5°
